Time,TemperatureF,DewpointF,PressureIn,WindDirection,WindDirectionDegrees,WindSpeedMPH,WindSpeedGustMPH,Humidity,HourlyPrecipIn,Conditions,Clouds,dailyrainin,SolarRadiationWatts/m^2,SoftwareType,DateUTC
2013-02-07 00:01:00,35.0,18.0,-100.00,WNW,293,6.0,10.0,49,0.00,,,0.00,0.000000,,2013-02-07 07:01:00,
2013-02-07 00:11:00,35.0,18.0,-100.00,WNW,293,6.0,10.0,49,0.00,,,0.00,0.000000,,2013-02-07 07:11:00,
2013-02-07 00:21:00,35.0,18.0,-100.00,WNW,293,6.0,10.0,49,0.00,,,0.00,0.000000,,2013-02-07 07:21:00,
2013-02-07 00:30:00,34.0,17.0,-100.00,NW,314,5.0,9.0,50,0.00,,,0.00,0.000000,,2013-02-07 07:30:00,
2013-02-07 00:52:00,34.0,17.0,-100.00,NW,314,5.0,9.0,50,0.00,,,0.00,0.000000,,2013-02-07 07:52:00,
2013-02-07 01:01:00,34.0,17.0,-100.00,NW,314,5.0,9.0,50,0.00,,,0.00,0.000000,,2013-02-07 08:01:00,
2013-02-07 01:11:00,34.0,17.0,-100.00,NW,314,5.0,9.0,50,0.00,,,0.00,0.000000,,2013-02-07 08:11:00,
2013-02-07 01:21:00,34.0,17.0,-100.00,NW,314,5.0,9.0,50,0.00,,,0.00,0.000000,,2013-02-07 08:21:00,
2013-02-07 01:30:00,35.0,19.0,-100.00,WNW,293,4.0,7.0,52,0.00,,,0.00,0.000000,,2013-02-07 08:30:00,
2013-02-07 01:52:00,35.0,19.0,-100.00,WNW,293,4.0,7.0,52,0.00,,,0.00,0.000000,,2013-02-07 08:52:00,
2013-02-07 02:01:00,35.0,19.0,-100.00,WNW,293,4.0,7.0,52,0.00,,,0.00,0.000000,,2013-02-07 09:01:00,
2013-02-07 02:11:00,35.0,19.0,-100.00,WNW,293,4.0,7.0,52,0.00,,,0.00,0.000000,,2013-02-07 09:11:00,
2013-02-07 02:21:00,35.0,19.0,-100.00,WNW,293,4.0,7.0,52,0.00,,,0.00,0.000000,,2013-02-07 09:21:00,
2013-02-07 02:30:00,35.0,17.0,-100.00,NW,317,3.0,10.0,47,0.00,,,0.00,0.000000,,2013-02-07 09:30:00,
2013-02-07 02:52:00,35.0,17.0,-100.00,NW,317,3.0,10.0,47,0.00,,,0.00,0.000000,,2013-02-07 09:52:00,
2013-02-07 03:01:00,35.0,17.0,-100.00,NW,317,3.0,10.0,47,0.00,,,0.00,0.000000,,2013-02-07 10:01:00,
2013-02-07 03:11:00,35.0,17.0,-100.00,NW,317,3.0,10.0,47,0.00,,,0.00,0.000000,,2013-02-07 10:11:00,
2013-02-07 03:22:00,35.0,17.0,-100.00,NW,317,3.0,10.0,47,0.00,,,0.00,0.000000,,2013-02-07 10:22:00,
2013-02-07 03:30:00,34.0,15.0,-100.00,NW,305,8.0,10.0,46,0.00,,,0.00,0.000000,,2013-02-07 10:30:00,
2013-02-07 03:52:00,34.0,15.0,-100.00,NW,305,8.0,10.0,46,0.00,,,0.00,0.000000,,2013-02-07 10:52:00,
2013-02-07 04:01:00,34.0,15.0,-100.00,NW,305,8.0,10.0,46,0.00,,,0.00,0.000000,,2013-02-07 11:01:00,
2013-02-07 04:11:00,34.0,15.0,-100.00,NW,305,8.0,10.0,46,0.00,,,0.00,0.000000,,2013-02-07 11:11:00,
2013-02-07 04:22:00,34.0,15.0,-100.00,NW,305,8.0,10.0,46,0.00,,,0.00,0.000000,,2013-02-07 11:22:00,
2013-02-07 04:30:00,34.0,16.0,-100.00,West,275,8.0,14.0,48,0.00,,,0.00,0.000000,,2013-02-07 11:30:00,
2013-02-07 04:52:00,34.0,16.0,-100.00,West,275,8.0,14.0,48,0.00,,,0.00,0.000000,,2013-02-07 11:52:00,
2013-02-07 05:02:00,34.0,16.0,-100.00,West,275,8.0,14.0,48,0.00,,,0.00,0.000000,,2013-02-07 12:02:00,
2013-02-07 05:11:00,34.0,16.0,-100.00,West,275,8.0,14.0,48,0.00,,,0.00,0.000000,,2013-02-07 12:11:00,
2013-02-07 05:22:00,34.0,16.0,-100.00,West,275,8.0,14.0,48,0.00,,,0.00,0.000000,,2013-02-07 12:22:00,
2013-02-07 05:30:00,34.0,18.0,-100.00,NW,312,9.0,14.0,51,0.00,,,0.00,0.000000,,2013-02-07 12:30:00,
2013-02-07 05:53:00,34.0,18.0,-100.00,NW,312,9.0,14.0,51,0.00,,,0.00,0.000000,,2013-02-07 12:53:00,
2013-02-07 06:02:00,34.0,18.0,-100.00,NW,312,9.0,14.0,51,0.00,,,0.00,0.000000,,2013-02-07 13:02:00,
2013-02-07 06:11:00,34.0,18.0,-100.00,NW,312,9.0,14.0,51,0.00,,,0.00,0.000000,,2013-02-07 13:11:00,
2013-02-07 06:21:00,34.0,18.0,-100.00,NW,312,9.0,14.0,51,0.00,,,0.00,0.000000,,2013-02-07 13:21:00,
2013-02-07 06:30:00,34.0,16.0,-100.00,WNW,288,7.0,14.0,47,0.00,,,-99.99,0.000000,,2013-02-07 13:30:00,
2013-02-07 06:52:00,34.0,16.0,-100.00,WNW,288,7.0,14.0,47,0.00,,,-99.99,0.000000,,2013-02-07 13:52:00,
2013-02-07 07:01:00,34.0,16.0,-100.00,WNW,288,7.0,14.0,47,0.00,,,-99.99,0.000000,,2013-02-07 14:01:00,
2013-02-07 07:11:00,34.0,16.0,-100.00,WNW,288,7.0,14.0,47,0.00,,,-99.99,0.000000,,2013-02-07 14:11:00,
2013-02-07 07:21:00,34.0,16.0,-100.00,WNW,288,7.0,14.0,47,0.00,,,-99.99,0.000000,,2013-02-07 14:21:00,
2013-02-07 07:30:00,33.0,17.0,-100.00,West,271,4.0,12.0,51,0.00,,,0.00,0.000000,,2013-02-07 14:30:00,
2013-02-07 07:52:00,33.0,17.0,-100.00,West,271,4.0,12.0,51,0.00,,,0.00,0.000000,,2013-02-07 14:52:00,
2013-02-07 08:01:00,33.0,17.0,-100.00,West,271,4.0,12.0,51,0.00,,,0.00,0.000000,,2013-02-07 15:01:00,
2013-02-07 08:11:00,33.0,17.0,-100.00,West,271,4.0,12.0,51,0.00,,,0.00,0.000000,,2013-02-07 15:11:00,
2013-02-07 08:21:00,33.0,17.0,-100.00,West,271,4.0,12.0,51,0.00,,,0.00,0.000000,,2013-02-07 15:21:00,
2013-02-07 08:30:00,33.0,18.0,-100.00,West,272,5.0,8.0,53,0.00,,,0.00,15.000000,,2013-02-07 15:30:00,
2013-02-07 08:52:00,33.0,18.0,-100.00,West,272,5.0,8.0,53,0.00,,,0.00,15.000000,,2013-02-07 15:52:00,
2013-02-07 09:01:00,33.0,18.0,-100.00,West,272,5.0,8.0,53,0.00,,,0.00,15.000000,,2013-02-07 16:01:00,
2013-02-07 09:11:00,33.0,18.0,-100.00,West,272,5.0,8.0,53,0.00,,,0.00,15.000000,,2013-02-07 16:11:00,
2013-02-07 09:21:00,33.0,18.0,-100.00,West,272,5.0,8.0,53,0.00,,,0.00,15.000000,,2013-02-07 16:21:00,
2013-02-07 09:30:00,36.0,17.0,-100.00,WNW,295,7.0,12.0,45,0.00,,,0.00,87.000000,,2013-02-07 16:30:00,
2013-02-07 09:52:00,36.0,17.0,-100.00,WNW,295,7.0,12.0,45,0.00,,,0.00,87.000000,,2013-02-07 16:52:00,
2013-02-07 10:01:00,36.0,17.0,-100.00,WNW,295,7.0,12.0,45,0.00,,,0.00,87.000000,,2013-02-07 17:01:00,
2013-02-07 10:11:00,36.0,17.0,-100.00,WNW,295,7.0,12.0,45,0.00,,,0.00,87.000000,,2013-02-07 17:11:00,
2013-02-07 10:21:00,36.0,17.0,-100.00,WNW,295,7.0,12.0,45,0.00,,,0.00,87.000000,,2013-02-07 17:21:00,
2013-02-07 10:30:00,39.0,17.0,-100.00,WSW,257,7.0,14.0,40,0.00,,,0.00,283.000000,,2013-02-07 17:30:00,
2013-02-07 10:52:00,39.0,17.0,-100.00,WSW,257,7.0,14.0,40,0.00,,,0.00,283.000000,,2013-02-07 17:52:00,
2013-02-07 11:01:00,39.0,17.0,-100.00,WSW,257,7.0,14.0,40,0.00,,,0.00,283.000000,,2013-02-07 18:01:00,
2013-02-07 11:11:00,39.0,17.0,-100.00,WSW,257,7.0,14.0,40,0.00,,,0.00,283.000000,,2013-02-07 18:11:00,
2013-02-07 11:22:00,39.0,17.0,-100.00,WSW,257,7.0,14.0,40,0.00,,,0.00,283.000000,,2013-02-07 18:22:00,
2013-02-07 11:30:00,40.0,16.0,-100.00,West,265,11.0,17.0,37,0.00,,,0.00,308.000000,,2013-02-07 18:30:00,
2013-02-07 11:52:00,40.0,16.0,-100.00,West,265,11.0,17.0,37,0.00,,,0.00,308.000000,,2013-02-07 18:52:00,
2013-02-07 12:01:00,40.0,16.0,-100.00,West,265,11.0,17.0,37,0.00,,,0.00,308.000000,,2013-02-07 19:01:00,
2013-02-07 12:11:00,40.0,16.0,-100.00,West,265,11.0,17.0,37,0.00,,,0.00,308.000000,,2013-02-07 19:11:00,
2013-02-07 12:22:00,40.0,16.0,-100.00,West,265,11.0,17.0,37,0.00,,,0.00,308.000000,,2013-02-07 19:22:00,
2013-02-07 12:30:00,43.0,14.0,-100.00,WSW,237,10.0,21.0,31,0.00,,,0.00,384.000000,,2013-02-07 19:30:00,
2013-02-07 12:52:00,43.0,14.0,-100.00,WSW,237,10.0,21.0,31,0.00,,,0.00,384.000000,,2013-02-07 19:52:00,
2013-02-07 13:01:00,43.0,14.0,-100.00,WSW,237,10.0,21.0,31,0.00,,,0.00,384.000000,,2013-02-07 20:01:00,
2013-02-07 13:11:00,43.0,14.0,-100.00,WSW,237,10.0,21.0,31,0.00,,,0.00,384.000000,,2013-02-07 20:11:00,
2013-02-07 13:21:00,43.0,14.0,-100.00,WSW,237,10.0,21.0,31,0.00,,,0.00,384.000000,,2013-02-07 20:21:00,
2013-02-07 13:30:00,45.0,15.0,-100.00,West,265,9.0,18.0,30,0.00,,,0.00,446.000000,,2013-02-07 20:30:00,
2013-02-07 13:52:00,45.0,15.0,-100.00,West,265,9.0,18.0,30,0.00,,,0.00,446.000000,,2013-02-07 20:52:00,
2013-02-07 14:01:00,45.0,15.0,-100.00,West,265,9.0,18.0,30,0.00,,,0.00,446.000000,,2013-02-07 21:01:00,
2013-02-07 14:11:00,45.0,15.0,-100.00,West,265,9.0,18.0,30,0.00,,,0.00,446.000000,,2013-02-07 21:11:00,
2013-02-07 14:21:00,45.0,15.0,-100.00,West,265,9.0,18.0,30,0.00,,,0.00,446.000000,,2013-02-07 21:21:00,
2013-02-07 14:30:00,45.0,15.0,-100.00,West,264,10.0,16.0,30,0.00,,,0.00,416.000000,,2013-02-07 21:30:00,
2013-02-07 14:52:00,45.0,15.0,-100.00,West,264,10.0,16.0,30,0.00,,,0.00,416.000000,,2013-02-07 21:52:00,
2013-02-07 15:02:00,45.0,15.0,-100.00,West,264,10.0,16.0,30,0.00,,,0.00,416.000000,,2013-02-07 22:02:00,
2013-02-07 15:11:00,45.0,15.0,-100.00,West,264,10.0,16.0,30,0.00,,,0.00,416.000000,,2013-02-07 22:11:00,
2013-02-07 15:21:00,45.0,15.0,-100.00,West,264,10.0,16.0,30,0.00,,,0.00,416.000000,,2013-02-07 22:21:00,
2013-02-07 15:30:00,45.0,15.0,-100.00,West,267,8.0,15.0,29,0.00,,,0.00,359.000000,,2013-02-07 22:30:00,
2013-02-07 15:52:00,45.0,15.0,-100.00,West,267,8.0,15.0,29,0.00,,,0.00,359.000000,,2013-02-07 22:52:00,
2013-02-07 16:01:00,45.0,15.0,-100.00,West,267,8.0,15.0,29,0.00,,,0.00,359.000000,,2013-02-07 23:01:00,
2013-02-07 16:11:00,45.0,15.0,-100.00,West,267,8.0,15.0,29,0.00,,,0.00,359.000000,,2013-02-07 23:11:00,
2013-02-07 16:21:00,45.0,15.0,-100.00,West,267,8.0,15.0,29,0.00,,,0.00,359.000000,,2013-02-07 23:21:00,
2013-02-07 16:30:00,45.0,15.0,-100.00,SW,232,5.0,13.0,29,0.00,,,0.00,261.000000,,2013-02-07 23:30:00,
2013-02-07 16:52:00,45.0,15.0,-100.00,SW,232,5.0,13.0,29,0.00,,,0.00,261.000000,,2013-02-07 23:52:00,
2013-02-07 17:01:00,45.0,15.0,-100.00,SW,232,5.0,13.0,29,0.00,,,0.00,261.000000,,2013-02-08 00:01:00,
2013-02-07 17:11:00,45.0,15.0,-100.00,SW,232,5.0,13.0,29,0.00,,,0.00,261.000000,,2013-02-08 00:11:00,
2013-02-07 17:21:00,45.0,15.0,-100.00,SW,232,5.0,13.0,29,0.00,,,0.00,261.000000,,2013-02-08 00:21:00,
2013-02-07 18:30:00,38.0,16.0,-100.00,NW,308,6.0,9.0,40,0.00,,,0.00,3.000000,,2013-02-08 01:30:00,
2013-02-07 18:52:00,38.0,16.0,-100.00,NW,308,6.0,9.0,40,0.00,,,0.00,3.000000,,2013-02-08 01:52:00,
2013-02-07 19:01:00,38.0,16.0,-100.00,NW,308,6.0,9.0,40,0.00,,,0.00,3.000000,,2013-02-08 02:01:00,
2013-02-07 19:11:00,38.0,16.0,-100.00,NW,308,6.0,9.0,40,0.00,,,0.00,3.000000,,2013-02-08 02:11:00,
2013-02-07 19:21:00,38.0,16.0,-100.00,NW,308,6.0,9.0,40,0.00,,,0.00,3.000000,,2013-02-08 02:21:00,
2013-02-07 19:30:00,36.0,16.0,-100.00,NW,315,5.0,9.0,43,0.00,,,0.00,0.000000,,2013-02-08 02:30:00,
2013-02-07 19:52:00,36.0,16.0,-100.00,NW,315,5.0,9.0,43,0.00,,,0.00,0.000000,,2013-02-08 02:52:00,
2013-02-07 20:01:00,36.0,16.0,-100.00,NW,315,5.0,9.0,43,0.00,,,0.00,0.000000,,2013-02-08 03:01:00,
2013-02-07 20:12:00,36.0,16.0,-100.00,NW,315,5.0,9.0,43,0.00,,,0.00,0.000000,,2013-02-08 03:12:00,
2013-02-07 20:22:00,36.0,16.0,-100.00,NW,315,5.0,9.0,43,0.00,,,0.00,0.000000,,2013-02-08 03:22:00,
2013-02-07 20:30:00,32.0,17.0,-100.00,WNW,288,3.0,5.0,53,0.00,,,0.00,0.000000,,2013-02-08 03:30:00,
2013-02-07 20:52:00,32.0,17.0,-100.00,WNW,288,3.0,5.0,53,0.00,,,0.00,0.000000,,2013-02-08 03:52:00,
2013-02-07 21:01:00,32.0,17.0,-100.00,WNW,288,3.0,5.0,53,0.00,,,0.00,0.000000,,2013-02-08 04:01:00,
2013-02-07 21:11:00,32.0,17.0,-100.00,WNW,288,3.0,5.0,53,0.00,,,0.00,0.000000,,2013-02-08 04:11:00,
2013-02-07 21:21:00,32.0,17.0,-100.00,WNW,288,3.0,5.0,53,0.00,,,0.00,0.000000,,2013-02-08 04:21:00,
2013-02-07 21:30:00,31.0,18.0,-100.00,West,276,5.0,6.0,59,0.00,,,0.00,0.000000,,2013-02-08 04:30:00,
2013-02-07 21:52:00,31.0,18.0,-100.00,West,276,5.0,6.0,59,0.00,,,0.00,0.000000,,2013-02-08 04:52:00,
2013-02-07 22:01:00,31.0,18.0,-100.00,West,276,5.0,6.0,59,0.00,,,0.00,0.000000,,2013-02-08 05:01:00,
2013-02-07 22:11:00,31.0,18.0,-100.00,West,276,5.0,6.0,59,0.00,,,0.00,0.000000,,2013-02-08 05:11:00,
2013-02-07 22:22:00,31.0,18.0,-100.00,West,276,5.0,6.0,59,0.00,,,0.00,0.000000,,2013-02-08 05:22:00,
2013-02-07 22:30:00,28.0,16.0,-100.00,WSW,246,1.0,6.0,61,0.00,,,0.00,0.000000,,2013-02-08 05:30:00,
2013-02-07 22:52:00,28.0,16.0,-100.00,WSW,246,1.0,6.0,61,0.00,,,0.00,0.000000,,2013-02-08 05:52:00,
2013-02-07 23:01:00,28.0,16.0,-100.00,WSW,246,1.0,6.0,61,0.00,,,0.00,0.000000,,2013-02-08 06:01:00,
2013-02-07 23:11:00,28.0,16.0,-100.00,WSW,246,1.0,6.0,61,0.00,,,0.00,0.000000,,2013-02-08 06:11:00,
2013-02-07 23:21:00,28.0,16.0,-100.00,WSW,246,1.0,6.0,61,0.00,,,0.00,0.000000,,2013-02-08 06:21:00,
2013-02-07 23:30:00,25.0,17.0,-100.00,East,95,0.0,2.0,72,0.00,,,0.00,0.000000,,2013-02-08 06:30:00,
2013-02-07 23:52:00,25.0,17.0,-100.00,East,95,0.0,2.0,72,0.00,,,0.00,0.000000,,2013-02-08 06:52:00,